Tracking 27419 objects as of 10-Jun-2023
HD Live streaming from Space Station
objects crossing your sky now

STARLINK-5053

Track STARLINK-5053 now!
10-day predictions
STARLINK-5053 is classified as:


NORAD ID: 53913
Int'l Code: 2022-119AD
Perigee: 546.1 km
Apogee: 547.6 km
Inclination: 53.2 °
Period: 95.4 minutes
Semi major axis: 6917 km
RCS: Unknown
Launch date: September 24, 2022
Source: United States (US)
Launch site: AIR FORCE EASTERN TEST RANGE (AFETR)
Your satellite tracking list
Your tracking list is empty




NASA's NSSDC Master Catalog

Two Line Element Set (TLE):
1 53913U 22119AD  23160.67941600  .00000284  00000-0  35901-4 0  9997
2 53913  53.2151 141.2802 0001076  86.3956 273.7159 15.08840029 40251
Source of the keplerian elements: AFSPC